Provo, UT

4:49 PM MDT on June 27, 2017 (GMT -0600)
Provo Municipal

Weather History for KPVU - February, 2014

Change the Weather History Date:

Sunday, February 23, 2014

  Actual Average Record
Temperature  
Mean Temperature 40 °F -  
Max Temperature 57 °F 39 °F 57 °F (1986)
Min Temperature 24 °F 25 °F 2 °F (1984)
Degree Days  
Heating Degree Days 24    
Moisture  
Dew Point 23 °F    
Average Humidity 65    
Maximum Humidity 80    
Minimum Humidity 25    
Precipitation  
Precipitation 0.00 in - - ()
Sea Level Pressure  
Sea Level Pressure 30.04 in    
Wind  
Wind Speed 2 mph (SSE)    
Max Wind Speed 7 mph    
Max Gust Speed -    
Visibility 12 miles    
Events      
Averages and records for this station are not official NWS values.
T = Trace of Precipitation, MM = Missing Value Source: NWS Daily Summary

Daily Weather History Graph

Daily Weather History Graph

Search for Another Location

Airport or City:

Trip Planner

Search our weather history database for the weather conditions in past years. The results will help you decide how hot, cold, wet, or windy it might be!

Date:

Astronomy

Feb. 23, 2014 Rise Set
Actual Time 7:09 AM MST 6:11 PM MST
Civil Twilight 6:41 AM MST 6:39 PM MST
Nautical Twilight 6:10 AM MST 7:10 PM MST
Astronomical Twilight 5:38 AM MST 7:42 PM MST
Moon 2:11 AM MST (2/23) 12:17 PM MST (2/23)
Length of Visible Light 11h 57m
Length of Day
11h 02m
Last Quarter, 38% of the Moon is Illuminated
Feb 23
Last Quarter
Mar 1
New
Mar 8
First Quarter
Mar 16
Full
Mar 23
Last Quarter

Hourly Weather History & Observations

Time (MST) Temp. Windchill Dew Point Humidity Pressure Visibility Wind Dir Wind Speed Gust Speed Precip Events Conditions
12:15 AM 32.0 °F - 24.8 °F 75% 30.01 in 10.0 mi Calm Calm - N/A   Clear
12:35 AM 30.2 °F - 21.2 °F 69% 30.01 in 10.0 mi Calm Calm - N/A   Clear
12:55 AM 30.2 °F 26.7 °F 24.8 °F 80% 30.01 in 10.0 mi SSE 3.5 mph - N/A   Clear
1:15 AM 28.4 °F 24.6 °F 23.0 °F 80% 30.01 in 10.0 mi South 3.5 mph - N/A   Clear
1:35 AM 28.4 °F 24.6 °F 21.2 °F 74% 30.02 in 10.0 mi South 3.5 mph - N/A   Clear
1:55 AM 30.2 °F - 23.0 °F 75% 30.02 in 10.0 mi Calm Calm - N/A   Clear
2:15 AM 28.4 °F - 23.0 °F 80% 30.02 in 10.0 mi Calm Calm - N/A   Clear
2:35 AM 28.4 °F 23.3 °F 23.0 °F 80% 30.02 in 10.0 mi SE 4.6 mph - N/A   Clear
2:55 AM 26.6 °F - 21.2 °F 80% 30.03 in 10.0 mi Calm Calm - N/A   Clear
3:15 AM 28.4 °F - 21.2 °F 74% 30.03 in 10.0 mi Calm Calm - N/A   Clear
3:35 AM 28.4 °F 24.6 °F 21.2 °F 74% 30.03 in 10.0 mi SE 3.5 mph - N/A   Clear
3:55 AM 26.6 °F 20.0 °F 21.2 °F 80% 30.03 in 10.0 mi SSE 5.8 mph - N/A   Clear
4:15 AM 24.8 °F 20.5 °F 19.4 °F 80% 30.04 in 10.0 mi SE 3.5 mph - N/A   Clear
4:35 AM 24.8 °F - 19.4 °F 80% 30.05 in 10.0 mi Calm Calm - N/A   Clear
4:55 AM 24.8 °F 20.5 °F 19.4 °F 80% 30.05 in 10.0 mi South 3.5 mph - N/A   Clear
5:15 AM 24.8 °F 20.5 °F 19.4 °F 80% 30.04 in 10.0 mi SSE 3.5 mph - N/A   Clear
5:35 AM 26.6 °F - 21.2 °F 80% 30.05 in 10.0 mi Calm Calm - N/A   Clear
5:55 AM 24.8 °F 19.1 °F 19.4 °F 80% 30.05 in 10.0 mi SE 4.6 mph - N/A   Clear
6:15 AM 26.6 °F 22.6 °F 21.2 °F 80% 30.05 in 10.0 mi SE 3.5 mph - N/A   Clear
6:35 AM 26.6 °F 22.6 °F 21.2 °F 80% 30.06 in 10.0 mi SE 3.5 mph - N/A   Clear
6:55 AM 26.6 °F - 19.4 °F 74% 30.06 in 10.0 mi Calm Calm - N/A   Clear
6:57 AM 39.2 °F - 21.2 °F 49% 30.06 in 15.0 mi Calm Calm - N/A   Clear
7:56 AM 28.4 °F 21.2 °F 23.0 °F 80% 30.08 in 15.0 mi SSE 6.9 mph - N/A   Clear
8:55 AM 33.8 °F 29.6 °F 26.6 °F 75% 30.10 in 15.0 mi East 4.6 mph - N/A   Clear
9:49 AM 35.6 °F - 24.8 °F 65% 30.10 in 15.0 mi Calm Calm - N/A   Clear
10:57 AM 39.2 °F 35.9 °F 24.8 °F 56% 30.10 in 15.0 mi WSW 4.6 mph - N/A   Clear
11:47 AM 41.0 °F 39.0 °F 24.8 °F 53% 30.09 in 15.0 mi WSW 3.5 mph - N/A   Clear
12:55 PM 46.4 °F - 26.6 °F 46% 30.07 in 15.0 mi Calm Calm - N/A   Clear
1:49 PM 53.6 °F - 26.6 °F 35% 30.05 in 15.0 mi SSW 3.5 mph - N/A   Clear
2:57 PM 57.2 °F - 24.8 °F 29% 30.02 in 15.0 mi Calm Calm - N/A   Partly Cloudy
3:50 PM 55.4 °F - 24.8 °F 31% 30.02 in 15.0 mi Calm Calm - N/A   Scattered Clouds
4:50 PM 57.2 °F - 21.2 °F 25% 30.00 in 15.0 mi Calm Calm - N/A   Scattered Clouds
5:49 PM 53.6 °F - 23.0 °F 30% 30.00 in 15.0 mi Calm Calm - N/A   Scattered Clouds
6:57 PM 42.8 °F - 24.8 °F 49% 30.01 in 15.0 mi Calm Calm - N/A   Scattered Clouds
7:57 PM 39.2 °F - 23.0 °F 52% 30.01 in 15.0 mi Calm Calm - N/A   Scattered Clouds
8:55 PM 37.4 °F - 24.8 °F 60% 30.02 in 15.0 mi Calm Calm - N/A   Scattered Clouds
9:15 PM 37.4 °F 34.9 °F 23.0 °F 56% 30.02 in 10.0 mi SSW 3.5 mph - N/A   Clear
9:35 PM 39.2 °F - 24.8 °F 56% 30.02 in 10.0 mi Calm Calm - N/A   Clear
9:55 PM 35.6 °F 32.8 °F 24.8 °F 65% 30.02 in 10.0 mi SSW 3.5 mph - N/A   Clear
10:15 PM 35.6 °F 31.7 °F 23.0 °F 60% 30.02 in 10.0 mi SSE 4.6 mph - N/A   Clear
10:35 PM 37.4 °F 33.8 °F 23.0 °F 56% 30.02 in 10.0 mi SE 4.6 mph - N/A   Clear
10:55 PM 35.6 °F 31.7 °F 23.0 °F 60% 30.03 in 10.0 mi ESE 4.6 mph - N/A   Clear
11:15 PM 35.6 °F 31.7 °F 24.8 °F 65% 30.03 in 10.0 mi East 4.6 mph - N/A   Clear
11:35 PM 37.4 °F 34.9 °F 24.8 °F 60% 30.03 in 10.0 mi East 3.5 mph - N/A   Clear
11:55 PM 33.8 °F - 24.8 °F 70% 30.03 in 10.0 mi Calm Calm - N/A   Clear